Location: El Centro
(32.7920°N, 115.5620°W)
Time: 11:51:25
(UTC-07:00)

Amateur Radio Satellites - All Passes

Search period start: 02 September 2014 11:21
Search period end: 03 September 2014 11:21
Location: El Centro, 32.7920°N, 115.5620°W

Satellite Date Start Highest point End Downlink Frequencies (MHz)
Time Altitude Azimuth
MaSat-1 02 Sep 11:28:03 11:31:43 22° 102° (ESE) 11:35:36 437.345 MHz
PANSAT 02 Sep 11:40:29 11:44:10 42° 176° (S) 11:47:51 not established
SO-50 02 Sep 12:13:24 12:18:14 75° 61° (ENE) 12:23:05 436.795 FM
FUNcube-1 02 Sep 12:28:52 12:30:14 11° 294° (WNW) 12:31:35 145.950 - 145.970 MHz USB
Oscar 19 02 Sep 12:36:11 12:40:03 22° 68° (ENE) 12:43:56 437.125 CW, 437.150 USB
AO-Echo 02 Sep 12:43:52 12:44:17 10° 65° (ENE) 12:44:42 ?
MaSat-1 02 Sep 13:04:00 13:08:26 35° 298° (WNW) 13:13:08 437.345 MHz
JAS-1B 02 Sep 13:04:39 13:12:49 33° 66° (ENE) 13:20:18 435.800 - 435.900 CW/SSB
Oscar 16 02 Sep 13:10:18 13:15:16 51° 73° (ENE) 13:20:16 437.025 USB, Beacon 2401.1428
ITAMSAT 1 02 Sep 13:15:17 13:19:12 22° 68° (ENE) 13:23:08 435.822 SSB
PANSAT 02 Sep 13:20:31 13:24:05 36° 189° (S) 13:27:40 not established
Uribyol 2 02 Sep 13:23:55 13:28:18 29° 70° (ENE) 13:32:42 436.500 FM
RS-15 02 Sep 13:25:25 13:28:39 11° 20° (NNE) 13:31:53 29.354 - 29.394 USB, Beacon 29.352 USB
TMSAT-1 02 Sep 13:42:11 13:44:18 12° 64° (ENE) 13:46:24 436.925 FM
AO-27 02 Sep 13:43:59 13:48:53 45° 72° (ENE) 13:53:48 436.795 MHz FM
UOSAT-12 02 Sep 13:56:39 14:01:20 64° 60° (ENE) 14:05:56 437.025 FM, 437.400 FM
Oscar 19 02 Sep 14:14:23 14:19:06 36° 262° (W) 14:23:52 437.125 CW, 437.150 USB
AO-Echo 02 Sep 14:17:25 14:22:27 73° 258° (WSW) 14:27:21 ?
Gurwin Techsat 1B 02 Sep 14:28:55 14:34:03 54° 74° (ENE) 14:39:13 435.225 FM
Oscar 16 02 Sep 14:51:59 14:54:50 15° 267° (W) 14:57:42 437.025 USB, Beacon 2401.1428
JAS-1B 02 Sep 14:53:11 15:02:49 58° 259° (W) 15:11:38 435.800 - 435.900 CW/SSB
ITAMSAT 1 02 Sep 14:53:45 14:58:26 35° 262° (W) 15:03:09 435.822 SSB
PANSAT 02 Sep 15:01:19 15:03:50 17° 201° (SSW) 15:06:21 not established
Uribyol 2 02 Sep 15:03:24 15:07:41 26° 263° (W) 15:11:59 436.500 FM
Uosat F 02 Sep 15:12:36 15:15:47 17° 66° (ENE) 15:18:58 435.120 FM
TMSAT-1 02 Sep 15:18:19 15:23:34 68° 258° (WSW) 15:28:51 436.925 FM
AO-7 02 Sep 15:25:08 15:32:48 43° 65° (ENE) 15:40:28 29.400 - 29.500 MHz
AO-27 02 Sep 15:25:15 15:28:33 17° 266° (W) 15:31:51 436.795 MHz FM
Sapphire 02 Sep 15:26:48 15:31:41 36° 109° (ESE) 15:36:36 437.095 MHz 1200 baud AX-25 AFSK
RS-15 02 Sep 15:35:06 15:45:23 41° 51° (NE) 15:55:58 29.354 - 29.394 USB, Beacon 29.352 USB
UOSAT-12 02 Sep 15:40:01 15:40:52 10° 254° (WSW) 15:41:42 437.025 FM, 437.400 FM
PCSat 02 Sep 15:55:20 16:00:42 77° 113° (ESE) 16:06:07 145.825 MHz
Gurwin Techsat 1B 02 Sep 16:11:24 16:14:16 15° 267° (W) 16:17:09 435.225 FM
ISS 02 Sep 16:25:33 16:28:49 52° 42° (NE) 16:32:04 145.800 FM
OPAL 02 Sep 16:48:07 16:53:02 41° 101° (E) 16:57:53 ?
Uosat F 02 Sep 16:49:24 16:54:10 44° 260° (W) 16:58:57 435.120 FM
Sapphire 02 Sep 17:10:43 17:15:08 25° 304° (NW) 17:19:34 437.095 MHz 1200 baud AX-25 AFSK
JAS-2 02 Sep 17:10:50 17:16:03 31° 71° (ENE) 17:20:50 435.800 - 435.900 CW/SSB, 435.910 FM
AO-7 02 Sep 17:18:01 17:25:31 37° 260° (W) 17:33:02 29.400 - 29.500 MHz
Hamsat 02 Sep 17:27:19 17:31:15 36° 73° (ENE) 17:35:15 145.90 MHz
PCSat 02 Sep 17:42:05 17:44:41 14° 310° (NW) 17:47:19 145.825 MHz
RS-15 02 Sep 17:47:14 17:57:55 54° 250° (WSW) 18:09:05 29.354 - 29.394 USB, Beacon 29.352 USB
ISS 02 Sep 18:04:32 18:05:10 10° 235° (SW) 18:05:48 145.800 FM
OPAL 02 Sep 18:27:48 18:31:33 20° 295° (WNW) 18:35:17 ?
STRAND 1 02 Sep 18:37:42 18:41:41 23° 96° (E) 18:45:40 ?
JAS-2 02 Sep 18:55:41 19:01:03 30° 261° (W) 19:05:57 435.800 - 435.900 CW/SSB, 435.910 FM
Hamsat 02 Sep 19:04:52 19:07:18 15° 267° (W) 19:09:45 145.90 MHz
SO-67 02 Sep 19:15:44 19:19:11 77° 259° (WSW) 19:22:39 435.3500 MHz FM
HO-68 02 Sep 19:22:18 19:26:04 15° 59° (ENE) 19:29:50 435.675 MHz FM
STRAND 1 02 Sep 20:16:19 20:20:51 33° 289° (WNW) 20:25:23 ?
UKube-1 02 Sep 21:04:28 21:08:35 44° 73° (ENE) 21:12:43 145.840 MHz, 145.915 MHz
HO-68 02 Sep 21:05:41 21:12:49 85° 255° (WSW) 21:20:00 435.675 MHz FM
Oscar 11 02 Sep 21:07:28 21:11:11 28° 72° (ENE) 21:14:55 145.825 FM, Beacon 2401.500 USB
MaSat-1 02 Sep 21:26:52 21:29:44 17° 55° (NE) 21:32:20 437.345 MHz
Saudisat 1A 02 Sep 21:29:44 21:34:08 86° 117° (ESE) 21:38:33 436.775 MHz
FUNcube-1 02 Sep 21:42:44 21:46:11 26° 71° (ENE) 21:49:42 145.950 - 145.970 MHz USB
KITSAT 1 02 Sep 22:30:49 22:38:51 74° 113° (ESE) 22:46:55 435.175 FM
UKube-1 02 Sep 22:43:14 22:44:57 12° 266° (W) 22:46:40 145.840 MHz, 145.915 MHz
Oscar 11 02 Sep 22:44:14 22:47:20 19° 265° (W) 22:50:27 145.825 FM, Beacon 2401.500 USB
HO-68 02 Sep 22:59:44 23:01:16 11° 269° (W) 23:02:48 435.675 MHz FM
MaSat-1 02 Sep 23:03:10 23:06:47 29° 256° (WSW) 23:09:56 437.345 MHz
Oscar 10/S400 02 Sep 23:18:01 23:56:13 73° 196° (SSW) 09:44:15 145.825 - 145.975 CW/USB, Beacon 145.810 USB
FUNcube-1 02 Sep 23:19:28 23:22:31 20° 265° (W) 23:25:37 145.950 - 145.970 MHz USB
AO-40 03 Sep 00:05:49 01:48:23 30° 224° (SW) 05:34:19 Beacon 2401.320
Sapphire 03 Sep 00:20:48 00:23:16 13° 50° (NE) 00:25:44 437.095 MHz 1200 baud AX-25 AFSK
KITSAT 1 03 Sep 00:28:48 00:34:57 23° 312° (NW) 00:41:08 435.175 FM
PCSat 03 Sep 00:48:25 00:52:49 25° 56° (NE) 00:57:11 145.825 MHz
Oscar 16 03 Sep 01:27:03 01:31:22 26° 96° (E) 01:35:38 437.025 USB, Beacon 2401.1428
ITAMSAT 1 03 Sep 01:34:51 01:35:53 11° 92° (E) 01:36:55 435.822 SSB
Uribyol 2 03 Sep 01:42:12 01:45:04 15° 94° (E) 01:47:55 436.500 FM
Sapphire 03 Sep 02:01:51 02:07:18 79° 246° (WSW) 02:12:42 437.095 MHz 1200 baud AX-25 AFSK
AO-27 03 Sep 02:02:06 02:06:12 23° 96° (E) 02:10:17 436.795 MHz FM
SO-50 03 Sep 02:24:12 02:28:36 69° 116° (ESE) 02:33:06 436.795 FM
AO-Echo 03 Sep 02:29:10 02:33:44 49° 100° (E) 02:38:21 ?
Oscar 19 03 Sep 02:30:03 02:35:14 72° 285° (WNW) 02:40:22 437.125 CW, 437.150 USB
PCSat 03 Sep 02:31:18 02:36:17 38° 251° (WSW) 02:41:13 145.825 MHz
JAS-1B 03 Sep 02:46:14 02:52:24 57° 100° (E) 02:57:58 435.800 - 435.900 CW/SSB
Gurwin Techsat 1B 03 Sep 02:50:01 02:54:42 31° 97° (E) 02:59:20 435.225 FM
Oscar 16 03 Sep 03:06:09 03:10:38 30° 290° (WNW) 03:15:05 437.025 USB, Beacon 2401.1428
ITAMSAT 1 03 Sep 03:10:35 03:15:45 69° 285° (WNW) 03:20:54 435.822 SSB
Uribyol 2 03 Sep 03:19:43 03:24:45 52° 287° (WNW) 03:29:47 436.500 FM
AO-7 03 Sep 03:33:41 03:38:24 16° 94° (E) 03:43:05 29.400 - 29.500 MHz
TMSAT-1 03 Sep 03:38:41 03:43:59 71° 102° (ESE) 03:49:15 436.925 FM
AO-27 03 Sep 03:41:04 03:45:41 33° 289° (WNW) 03:50:18 436.795 MHz FM
OPAL 03 Sep 03:58:44 04:03:30 44° 70° (ENE) 04:08:22 ?
UOSAT-12 03 Sep 04:03:28 04:07:55 54° 115° (ESE) 04:12:28 437.025 FM, 437.400 FM
SO-50 03 Sep 04:07:59 04:09:38 12° 313° (NW) 04:11:18 436.795 FM
AO-Echo 03 Sep 04:09:48 04:12:04 14° 294° (WNW) 04:14:21 ?
Gurwin Techsat 1B 03 Sep 04:30:08 04:34:29 26° 291° (WNW) 04:38:49 435.225 FM
JAS-1B 03 Sep 04:38:40 04:42:19 16° 300° (WNW) 04:45:46 435.800 - 435.900 CW/SSB
Uosat F 03 Sep 05:01:17 05:06:18 81° 103° (ESE) 05:11:19 435.120 FM
TMSAT-1 03 Sep 05:21:18 05:23:14 12° 296° (WNW) 05:25:11 436.925 FM
AO-7 03 Sep 05:23:34 05:31:52 83° 288° (WNW) 05:40:08 29.400 - 29.500 MHz
OPAL 03 Sep 05:39:17 05:42:32 17° 264° (W) 05:45:50 ?
UOSAT-12 03 Sep 05:45:40 05:48:23 15° 311° (NW) 05:51:08 437.025 FM, 437.400 FM
STRAND 1 03 Sep 05:49:47 05:53:35 22° 68° (ENE) 05:57:23 ?
RS-15 03 Sep 05:53:46 06:03:37 38° 107° (ESE) 06:13:13 29.354 - 29.394 USB, Beacon 29.352 USB
Saudisat 1A 03 Sep 06:01:26 06:04:43 20° 52° (NE) 06:07:59 436.775 MHz
JAS-2 03 Sep 06:07:43 06:12:47 38° 100° (E) 06:18:20 435.800 - 435.900 CW/SSB, 435.910 FM
KITSAT 1 03 Sep 06:30:38 06:35:45 18° 44° (NE) 06:40:49 435.175 FM
Hamsat 03 Sep 06:53:01 06:57:16 57° 284° (WNW) 07:01:28 145.90 MHz
AO-7 03 Sep 07:19:11 07:23:23 15° 305° (NW) 07:27:36 29.400 - 29.500 MHz
STRAND 1 03 Sep 07:27:52 07:32:30 35° 262° (W) 07:37:10 ?
ISS 03 Sep 07:29:40 07:31:36 15° 127° (SE) 07:33:33 145.800 FM
Saudisat 1A 03 Sep 07:40:22 07:44:20 34° 247° (WSW) 07:48:17 436.775 MHz
JAS-2 03 Sep 07:53:34 07:57:41 23° 291° (WNW) 08:02:05 435.800 - 435.900 CW/SSB, 435.910 FM
RS-15 03 Sep 08:04:45 08:15:29 53° 305° (NW) 08:26:06 29.354 - 29.394 USB, Beacon 29.352 USB
SO-67 03 Sep 08:16:57 08:20:03 32° 286° (WNW) 08:23:09 435.3500 MHz FM
KITSAT 1 03 Sep 08:24:11 08:32:18 85° 64° (ENE) 08:40:21 435.175 FM
HO-68 03 Sep 08:39:29 08:44:56 23° 96° (E) 08:50:21 435.675 MHz FM
UKube-1 03 Sep 08:59:54 09:00:50 11° 93° (E) 09:01:45 145.840 MHz, 145.915 MHz
ISS 03 Sep 09:04:57 09:08:04 37° 320° (NW) 09:11:11 145.800 FM
PANSAT 03 Sep 09:35:59 09:39:14 26° 164° (SSE) 09:42:28 not established
KITSAT 1 03 Sep 10:22:24 10:26:38 15° 259° (W) 10:30:52 435.175 FM
RS-15 03 Sep 10:25:55 10:31:10 14° 333° (NNW) 10:36:27 29.354 - 29.394 USB, Beacon 29.352 USB
HO-68 03 Sep 10:25:56 10:32:51 55° 290° (WNW) 10:39:47 435.675 MHz FM
UKube-1 03 Sep 10:33:03 10:37:15 50° 286° (WNW) 10:41:26 145.840 MHz, 145.915 MHz
Oscar 11 03 Sep 10:34:51 10:39:13 75° 283° (WNW) 10:43:33 145.825 FM, Beacon 2401.500 USB
SO-50 03 Sep 11:00:36 11:04:15 21° 52° (NE) 11:07:55 436.795 FM
MaSat-1 03 Sep 11:09:29 11:12:59 20° 102° (ESE) 11:16:38 437.345 MHz
FUNcube-1 03 Sep 11:11:20 11:15:55 77° 283° (WNW) 11:20:32 145.950 - 145.970 MHz USB
